Location: Clarion
(42.7316°N, 93.7330°W)
Time: 08:44:45
(UTC+00:00)

BREEZE-M DEB (TANK) - Pass Details

Date: 22 April 2026
Orbit: 341 x 15825 km, 49.4° (Epoch: 16 May)

Event Time Altitude Azimuth Distance (km) Brightness Sun altitude
Rises 09:14:42 0° 289° (WNW) 9,001 8.2 -21.1°
Reaches altitude 10° 09:23:28 10° 293° (WNW) 5,731 7.2 -19.9°
Maximum altitude 09:35:13 62° 13° (NNE) 1,015 3.8 -18.2°
Drops below altitude 10° 09:38:44 10° 96° (E) 1,804 5.6 -17.7°
Sets 09:40:07 0° 101° (E) 2,438 6.3 -17.5°
